International Skating Union - Official Site

ISU Neo Senior World Cup Speed Skating Inzell
November 25-26, 2017

Draw | Lap Times | Index | World Cup

Referee: Hubert  KAMML  (GER)
Starter: Bartosz  DAWIDOWSKI  (POL)
StartTime: EndTime: Air Temp: Ice Temp: Humidity:
15:06 15:27 11.9℃ -7.5℃ 45%
Result 3000m Men Division A
Rankings as of Nov 26 2017 4:12PM
Rank: No.: Name: Nation: Time: Behind: Points:
1 223 Runar Njåtun  Krøyer NOR NOR 3:47.42200m - 18.85 - (18.8)
600m - 48.02 - (29.1)
1000m - 1:17.59 - (29.5)
1400m - 1:47.10 - (29.5)
1800m - 2:16.72 - (29.6)
2200m - 2:46.52 - (29.8)
2600m - 3:16.79 - (30.2)
3000m - 3:47.42 - (30.6)
100
2 225 Vetle  Stangeland NOR NOR 3:48.11200m - 19.21 - (19.2)
600m - 47.69 - (28.4)
1000m - 1:16.69 - (29.0)
1400m - 1:46.15 - (29.4)
1800m - 2:16.00 - (29.8)
2200m - 2:46.22 - (30.2)
2600m - 3:17.07 - (30.8)
3000m - 3:48.11 - (31.0)
0.69 80
3 222 Magnus Bakken  Haugli NOR NOR 3:49.57200m - 19.10 - (19.1)
600m - 48.06 - (28.9)
1000m - 1:17.45 - (29.3)
1400m - 1:47.32 - (29.8)
1800m - 2:17.56 - (30.2)
2200m - 2:48.03 - (30.4)
2600m - 3:18.77 - (30.7)
3000m - 3:49.57 - (30.7)
2.15 70
4 205 Aliaksei  Kirpichnik BLR BLR 3:52.42200m - 18.74 - (18.7)
600m - 48.02 - (29.2)
1000m - 1:17.86 - (29.8)
1400m - 1:47.66 - (29.7)
1800m - 2:18.00 - (30.3)
2200m - 2:48.96 - (30.9)
2600m - 3:20.58 - (31.6)
3000m - 3:52.42 - (31.8)
5.00 60
5 234 Yegor  Yunin RUS RUS 3:53.70200m - 19.27 - (19.2)
600m - 49.21 - (29.9)
1000m - 1:18.81 - (29.6)
1400m - 1:48.08 - (29.2)
1800m - 2:17.91 - (29.8)
2200m - 2:48.33 - (30.4)
2600m - 3:20.04 - (31.7)
3000m - 3:53.70 - (33.6)
6.28 50
6 231 Daniil  Beliaev RUS RUS 3:54.05200m - 18.58 - (18.5)
600m - 49.20 - (30.6)
1000m - 1:19.70 - (30.5)
1400m - 1:50.37 - (30.6)
1800m - 2:20.70 - (30.3)
2200m - 2:51.17 - (30.4)
2600m - 3:22.09 - (30.9)
3000m - 3:54.05 - (31.9)
6.63 44
7 228 Artur  Janicki POL POL 3:54.49200m - 19.88 - (19.8)
600m - 49.58 - (29.6)
1000m - 1:19.38 - (29.7)
1400m - 1:49.81 - (30.4)
1800m - 2:20.57 - (30.7)
2200m - 2:51.58 - (31.0)
2600m - 3:23.24 - (31.6)
3000m - 3:54.49 - (31.2)
7.07 40
8 210 Chenglong  Xu CHN CHN 3:54.50200m - 18.73 - (18.7)
600m - 47.40 - (28.6)
1000m - 1:16.35 - (28.9)
1400m - 1:46.67 - (30.3)
1800m - 2:17.48 - (30.8)
2200m - 2:49.18 - (31.7)
2600m - 3:21.61 - (32.4)
3000m - 3:54.50 - (32.8)
7.08 36
9 226 Marcin  Bachanek POL POL 3:54.74200m - 19.15 - (19.1)
600m - 49.43 - (30.2)
1000m - 1:19.67 - (30.2)
1400m - 1:49.52 - (29.8)
1800m - 2:20.18 - (30.6)
2200m - 2:51.42 - (31.2)
2600m - 3:22.88 - (31.4)
3000m - 3:54.74 - (31.8)
7.32 32
10 229 Mateusz  Owczarek POL POL 3:55.68200m - 18.60 - (18.6)
600m - 48.10 - (29.5)
1000m - 1:18.36 - (30.2)
1400m - 1:49.55 - (31.1)
1800m - 2:20.62 - (31.0)
2200m - 2:52.27 - (31.6)
2600m - 3:23.82 - (31.5)
3000m - 3:55.68 - (31.8)
8.26 28
11 212 Philip Due  Schmidt DEN DEN 3:55.85200m - 19.26 - (19.2)
600m - 49.04 - (29.7)
1000m - 1:18.99 - (29.9)
1400m - 1:49.35 - (30.3)
1800m - 2:19.96 - (30.6)
2200m - 2:51.08 - (31.1)
2600m - 3:22.92 - (31.8)
3000m - 3:55.85 - (32.9)
8.43 24
12 203 Anton  Iliyshenka BLR BLR 3:57.46200m - 20.10 - (20.1)
600m - 50.58 - (30.4)
1000m - 1:21.40 - (30.8)
1400m - 1:51.93 - (30.5)
1800m - 2:22.37 - (30.4)
2200m - 2:53.03 - (30.6)
2600m - 3:24.85 - (31.8)
3000m - 3:57.46 - (32.6)
10.04 20
13 219 Demyan  Gavrilov KAZ KAZ 3:58.19200m - 19.76 - (19.7)
600m - 50.86 - (31.0)
1000m - 1:21.57 - (30.7)
1400m - 1:52.29 - (30.7)
1800m - 2:23.42 - (31.1)
2200m - 2:54.87 - (31.4)
2600m - 3:26.50 - (31.6)
3000m - 3:58.19 - (31.6)
10.77 18
14 201 Jordan  McMillen BEL BEL 3:59.98200m - 19.71 - (19.7)
600m - 49.27 - (29.5)
1000m - 1:19.55 - (30.2)
1400m - 1:50.44 - (30.8)
1800m - 2:22.19 - (31.7)
2200m - 2:54.37 - (32.1)
2600m - 3:26.99 - (32.6)
3000m - 3:59.98 - (32.9)
12.56 16
15 237 Wilhelm  Ekensskär SWE SWE 4:00.80200m - 20.60 - (20.6)
600m - 50.41 - (29.8)
1000m - 1:20.64 - (30.2)
1400m - 1:50.95 - (30.3)
1800m - 2:21.89 - (30.9)
2200m - 2:53.80 - (31.9)
2600m - 3:26.83 - (33.0)
3000m - 4:00.80 - (33.9)
13.38 14
16 209 Shiwei  Wang CHN CHN 4:03.47200m - 19.02 - (19.0)
600m - 48.63 - (29.6)
1000m - 1:18.89 - (30.2)
1400m - 1:50.02 - (31.1)
1800m - 2:22.35 - (32.3)
2200m - 2:55.21 - (32.8)
2600m - 3:29.22 - (34.0)
3000m - 4:03.47 - (34.2)
16.05 12